Location: Bats
(43.6587°N, 0.4584°W)
Time: 16:00:11
(UTC+00:00)

Okean 2 - Pass Details

Date: 12 January 2026
Orbit: 515 x 524 km, 82.5° (Epoch: 18 February)

Event Time Altitude Azimuth Distance (km) Brightness Sun altitude
Rises 18:56:30 0° 195° (SSW) 2,643 7.1 -22.9°
Reaches altitude 10° 18:58:39 10° 198° (SSW) 1,757 6.2 -23.2°
Maximum altitude 19:02:28 62° 280° (W) 593 3.6 -23.9°
Enters shadow 19:03:00 55° 321° (NW) 637 3.7 -24.0°
